N4NVD-13 Weather Reports


Display with metric or nautical units.
time (UTC)temp
F
wind
direction
speed
MPH
gust
MPH
rain 1hr
in
rain 24hr
in
rain mn
in
humidity
%
barometer
mb
20260506030121 77 172 0.0 12.0 0.00 0.00 0.00 93 1006.5
20260506025618 77 158 8.0 10.0 0.00 0.00 0.00 93 1006.4
20260506025114 77 158 6.0 8.0 0.00 0.00 0.00 93 1006.5
20260506024612 77 213 4.0 10.0 0.00 0.00 0.00 92 1006.3
20260506024107 77 154 4.0 8.0 0.00 0.00 0.00 92 1006.3
20260506023604 77 180 5.0 6.0 0.00 0.00 0.00 92 1006.5
20260506023101 78 162 6.0 8.0 0.00 0.00 0.00 91 1006.1
20260506022558 78 180 2.0 6.0 0.00 0.00 0.00 91 1006.4
20260506022055 78 180 2.0 7.0 0.00 0.00 0.00 91 1006.1
20260506021553 78 165 5.0 9.0 0.00 0.00 0.00 91 1006.2
20260506021050 78 194 2.0 7.0 0.00 0.00 0.00 91 1006.4
20260506020547 78 157 5.0 7.0 0.00 0.00 0.00 91 1006.2
20260506020044 78 221 2.0 7.0 0.00 0.00 0.00 91 1006.2
20260506015542 78 170 3.0 6.0 0.00 0.00 0.00 91 1006.4
20260506015039 78 166 3.0 7.0 0.00 0.00 0.00 91 1006.1
20260506014536 78 212 0.0 4.0 0.00 0.00 0.00 91 1006.2
20260506014031 78 194 3.0 6.0 0.00 0.00 0.00 91 1006.0
20260506013531 78 154 5.0 6.0 0.00 0.00 0.00 91 1006.0
20260506013027 78 195 0.0 5.0 0.00 0.00 0.00 91 1006.0
20260506012523 78 166 1.0 3.0 0.00 0.00 0.00 90 1006.0
20260506012020 78 210 3.0 4.0 0.00 0.00 0.00 90 1005.8
20260506011518 78 212 2.0 7.0 0.00 0.00 0.00 90 1005.7
20260506011014 79 154 4.0 7.0 0.00 0.00 0.00 89 1005.7
20260506010514 79 207 5.0 7.0 0.00 0.00 0.00 89 1005.5
20260506010009 79 161 4.0 6.0 0.00 0.00 0.00 89 1005.5
20260506005507 79 199 3.0 7.0 0.00 0.00 0.00 88 1005.3
20260506005002 79 173 6.0 8.0 0.00 0.00 0.00 88 1005.1
20260506004500 80 185 2.0 11.0 0.00 0.00 0.00 87 1005.0
20260506003956 80 165 2.0 6.0 0.00 0.00 0.00 88 1005.1
20260506003453 80 214 3.0 7.0 0.00 0.00 0.00 87 1005.1
20260506002949 80 117 2.0 7.0 0.00 0.00 0.00 87 1004.9
20260506002445 80 186 4.0 11.0 0.00 0.00 0.00 87 1005.0
20260506001941 80 157 3.0 7.0 0.00 0.00 0.00 87 1004.8
20260506001438 81 157 1.0 7.0 0.00 0.00 0.00 87 1005.0
20260506000935 81 205 3.0 7.0 0.00 0.00 0.00 86 1005.0
20260506000433 81 156 2.0 6.0 0.00 0.00 0.00 86 1005.2
20260505235929 81 180 1.0 7.0 0.00 0.00 0.00 86 1005.2
20260505235428 81 178 4.0 13.0 0.00 0.00 0.00 85 1005.1
20260505234924 82 135 6.0 7.0 0.00 0.00 0.00 85 1005.0
20260505234421 82 245 2.0 9.0 0.00 0.00 0.00 85 1005.2
20260505233918 82 141 6.0 9.0 0.00 0.00 0.00 85 1005.0
20260505233416 82 166 3.0 10.0 0.00 0.00 0.00 85 1005.0
20260505232913 82 223 6.0 6.0 0.00 0.00 0.00 85 1005.2
20260505232411 82 188 1.0 6.0 0.00 0.00 0.00 85 1004.9
20260505231907 82 175 3.0 9.0 0.00 0.00 0.00 84 1005.0
20260505231405 83 157 6.0 6.0 0.00 0.00 0.00 84 1004.5
20260505230903 83 240 5.0 9.0 0.00 0.00 0.00 84 1004.9
20260505230400 83 169 3.0 8.0 0.00 0.00 0.00 84 1004.7
20260505225856 83 165 1.0 9.0 0.00 0.00 0.00 84 1004.8
20260505225354 83 210 6.0 10.0 0.00 0.00 0.00 83 1004.9
20260505224849 84 129 4.0 7.0 0.00 0.00 0.00 81 1004.8
20260505224347 84 188 2.0 10.0 0.00 0.00 0.00 80 1005.0
20260505223844 85 202 3.0 8.0 0.00 0.00 0.00 80 1004.9
20260505223341 84 195 4.0 8.0 0.00 0.00 0.00 80 1004.8
20260505222836 84 183 5.0 10.0 0.00 0.00 0.00 80 1004.8
20260505222333 85 213 5.0 7.0 0.00 0.00 0.00 80 1005.0
20260505221830 84 219 7.0 10.0 0.00 0.00 0.00 80 1004.9
20260505221327 85 233 5.0 7.0 0.00 0.00 0.00 79 1005.0
20260505220824 85 191 3.0 6.0 0.00 0.00 0.00 80 1004.8
20260505220321 86 212 6.0 7.0 0.00 0.00 0.00 80 1005.1
20260505215819 85 229 3.0 8.0 0.00 0.00 0.00 80 1004.9
20260505215317 84 216 7.0 9.0 0.00 0.00 0.00 81 1005.0
20260505214814 84 232 2.0 9.0 0.00 0.00 0.00 81 1005.1
20260505214311 85 222 9.0 9.0 0.00 0.00 0.00 80 1005.1
20260505213808 86 210 2.0 4.0 0.00 0.00 0.00 79 1004.8
20260505213306 84 225 3.0 6.0 0.00 0.00 0.00 81 1005.3
20260505212801 84 242 6.0 10.0 0.00 0.00 0.00 81 1005.3
20260505212259 85 198 3.0 7.0 0.00 0.00 0.00 80 1005.3
20260505211755 84 205 5.0 10.0 0.00 0.00 0.00 82 1005.0
20260505211253 84 217 8.0 11.0 0.00 0.00 0.00 82 1005.3
20260505210749 84 144 5.0 9.0 0.00 0.00 0.00 81 1005.5
20260505210246 84 204 6.0 10.0 0.00 0.00 0.00 81 1005.9
20260505205743 84 225 6.0 11.0 0.00 0.00 0.00 81 1005.8
20260505205242 85 148 2.0 5.0 0.00 0.00 0.00 81 1005.9
20260505204738 85 180 0.0 11.0 0.00 0.00 0.00 80 1006.0
20260505204236 84 227 3.0 11.0 0.00 0.00 0.00 80 1005.9
20260505203733 84 200 5.0 9.0 0.00 0.00 0.00 80 1006.1
20260505203230 83 222 9.0 12.0 0.00 0.00 0.00 81 1006.2
20260505202725 84 210 8.0 11.0 0.00 0.00 0.00 81 1006.1
20260505202222 85 218 5.0 7.0 0.00 0.00 0.00 82 1006.2
20260505201718 84 210 10.0 11.0 0.00 0.00 0.00 81 1006.4
20260505201216 83 157 5.0 9.0 0.00 0.00 0.00 82 1006.2
20260505200714 83 233 2.0 6.0 0.00 0.00 0.00 81 1006.4
20260505200211 83 225 5.0 16.0 0.00 0.00 0.00 81 1006.5
20260505195706 83 231 5.0 10.0 0.00 0.00 0.00 82 1006.6
20260505195204 83 226 11.0 15.0 0.00 0.00 0.00 82 1006.7
20260505194701 83 233 6.0 11.0 0.00 0.00 0.00 82 1006.6
20260505194157 83 207 7.0 13.0 0.00 0.00 0.00 82 1006.7
20260505193654 83 229 3.0 10.0 0.00 0.00 0.00 83 1006.9
20260505193151 83 226 9.0 11.0 0.00 0.00 0.00 84 1006.9
20260505192649 82 208 4.0 10.0 0.00 0.00 0.00 83 1006.9
20260505192147 82 223 5.0 9.0 0.00 0.00 0.00 84 1006.8
20260505191645 84 213 4.0 9.0 0.00 0.00 0.00 82 1007.0
20260505191143 82 228 7.0 12.0 0.00 0.00 0.00 84 1006.9
20260505190639 82 226 14.0 23.0 0.00 0.00 0.00 82 1007.1
20260505190138 82 223 5.0 24.0 0.00 0.00 0.00 83 1006.9
20260505185636 82 244 7.0 14.0 0.00 0.00 0.00 82 1007.1
20260505185132 82 210 15.0 18.0 0.00 0.00 0.00 82 1007.2
20260505184628 81 225 7.0 12.0 0.00 0.00 0.00 85 1007.2
20260505184126 80 201 7.0 15.0 0.00 0.00 0.00 85 1007.4
20260505183622 80 211 5.0 16.0 0.00 0.00 0.00 85 1007.3
20260505183120 81 212 7.0 15.0 0.00 0.00 0.00 85 1007.5
20260505182616 80 220 12.0 18.0 0.00 0.00 0.00 85 1007.3
20260505182113 80 190 3.0 11.0 0.00 0.00 0.00 85 1007.6
20260505181609 81 216 9.0 14.0 0.00 0.00 0.00 84 1007.6
20260505181107 80 207 13.0 17.0 0.00 0.00 0.00 85 1007.6
20260505180603 81 228 11.0 14.0 0.00 0.00 0.00 85 1007.5
20260505180101 81 207 4.0 12.0 0.00 0.00 0.00 85 1007.6
20260505175556 80 226 5.0 10.0 0.00 0.00 0.00 88 1007.7
20260505175053 80 228 7.0 15.0 0.00 0.00 0.00 86 1007.7
20260505174550 80 215 10.0 13.0 0.00 0.00 0.00 86 1007.9
20260505174045 80 223 6.0 16.0 0.00 0.00 0.00 87 1007.5
20260505173537 79 204 4.0 18.0 0.00 0.00 0.00 88 1008.0
20260505173033 79 213 7.0 11.0 0.00 0.00 0.00 88 1007.9
20260505172531 78 223 4.0 17.0 0.00 0.00 0.00 89 1007.9
20260505172028 78 233 6.0 11.0 0.00 0.00 0.00 89 1007.9
20260505171523 78 217 7.0 20.0 0.00 0.00 0.00 88 1008.0
20260505171020 79 216 5.0 11.0 0.00 0.00 0.00 88 1007.9
20260505170517 79 227 6.0 12.0 0.00 0.00 0.00 88 1008.0
20260505170013 79 246 11.0 17.0 0.00 0.00 0.00 88 1008.0
20260505165508 78 250 13.0 13.0 0.00 0.00 0.00 89 1007.9
20260505165004 78 213 9.0 21.0 0.00 0.00 0.00 88 1008.1
20260505164500 78 231 9.0 12.0 0.00 0.00 0.00 89 1008.0
20260505163959 78 222 11.0 16.0 0.00 0.00 0.00 89 1008.1
20260505163457 78 227 7.0 14.0 0.00 0.00 0.00 89 1008.1
20260505162956 78 213 3.0 15.0 0.00 0.00 0.00 90 1007.9
20260505162451 78 216 3.0 6.0 0.00 0.00 0.00 90 1008.2
20260505161948 77 206 4.0 9.0 0.00 0.00 0.00 91 1008.0
20260505161445 77 216 4.0 10.0 0.00 0.00 0.00 91 1007.9
20260505160942 77 234 5.0 9.0 0.00 0.00 0.00 92 1008.1
20260505160440 76 180 3.0 13.0 0.00 0.00 0.00 92 1008.0
20260505152910 75 230 5.0 15.0 0.00 0.00 0.00 94 1008.0
20260505152407 75 235 5.0 12.0 0.00 0.00 0.00 94 1007.9
20260505151902 75 211 6.0 17.0 0.00 0.00 0.00 94 1007.8
20260505151358 75 154 2.0 9.0 0.00 0.00 0.00 94 1007.9
20260505150855 75 215 7.0 18.0 0.00 0.00 0.00 94 1008.0
20260505150347 75 215 12.0 15.0 0.00 0.00 0.00 94 1007.9
20260505140317 73 150 4.0 11.0 0.00 0.00 0.00 96 1007.8
20260505130240 72 198 4.0 8.0 0.00 0.00 0.00 96 1007.3
20260505124731 72 199 7.0 13.0 0.00 0.00 0.00 97 1007.2
20260505124228 72 157 7.0 9.0 0.00 0.00 0.00 96 1007.2
20260505123723 71 195 3.0 14.0 0.00 0.00 0.00 96 1007.2
20260505123220 71 215 5.0 8.0 0.00 0.00 0.00 96 1007.3
20260505122716 71 203 0.0 7.0 0.00 0.00 0.00 96 1007.3
20260505122214 71 208 8.0 10.0 0.00 0.00 0.00 96 1007.1
20260505121705 71 195 2.0 11.0 0.00 0.00 0.00 96 1007.0
20260505121201 71 201 3.0 10.0 0.00 0.00 0.00 96 1007.2
20260505120658 71 213 5.0 7.0 0.00 0.00 0.00 96 1007.0
20260505120153 71 214 3.0 10.0 0.00 0.00 0.00 96 1006.8
20260505115647 71 214 0.0 7.0 0.00 0.00 0.00 96 1006.8
20260505115146 71 215 7.0 7.0 0.00 0.00 0.00 96 1006.9
20260505114643 71 210 2.0 9.0 0.00 0.00 0.00 96 1007.0
20260505114139 71 201 5.0 14.0 0.00 0.00 0.00 95 1007.0
20260505113635 71 151 6.0 11.0 0.00 0.00 0.00 95 1007.1
20260505113132 71 223 5.0 8.0 0.00 0.00 0.00 96 1007.2
20260505112628 71 205 4.0 11.0 0.00 0.00 0.00 95 1006.9
20260505112126 71 177 2.0 11.0 0.00 0.00 0.00 95 1006.8
20260505111626 71 226 4.0 12.0 0.00 0.00 0.00 95 1006.7
20260505111122 71 226 12.0 12.0 0.00 0.00 0.00 95 1007.0
20260505110618 71 208 5.0 13.0 0.00 0.00 0.00 95 1006.9
20260505110115 71 208 5.0 11.0 0.00 0.00 0.00 95 1006.8
20260505102051 71 222 6.0 13.0 0.00 0.00 0.00 95 1006.8
20260505101550 71 214 6.0 11.0 0.00 0.00 0.00 95 1007.1
20260505101046 71 225 4.0 12.0 0.00 0.00 0.00 95 1007.1
20260505100542 71 216 7.0 7.0 0.00 0.00 0.00 95 1006.9
20260505100039 70 241 4.0 8.0 0.00 0.00 0.00 95 1006.7
20260505095535 71 204 7.0 11.0 0.00 0.00 0.00 95 1007.1
20260505095032 71 200 6.0 11.0 0.00 0.00 0.00 95 1007.2
20260505094528 71 257 1.0 12.0 0.00 0.00 0.00 95 1007.2
20260505094025 71 209 3.0 12.0 0.00 0.00 0.00 95 1006.9
20260505093521 71 241 4.0 13.0 0.00 0.00 0.00 95 1006.8
20260505093019 71 227 5.0 14.0 0.00 0.00 0.00 95 1007.1
20260505092516 71 221 0.0 16.0 0.00 0.00 0.00 95 1007.1
20260505092014 71 220 14.0 16.0 0.00 0.00 0.00 94 1007.0
20260505091511 71 154 4.0 8.0 0.00 0.00 0.00 95 1007.3
20260505091009 71 168 7.0 14.0 0.00 0.00 0.00 95 1007.2
20260505090507 71 176 4.0 14.0 0.00 0.00 0.00 94 1007.3
20260505090004 71 189 5.0 8.0 0.00 0.00 0.00 95 1007.3
20260505085502 71 223 4.0 9.0 0.00 0.00 0.00 95 1007.3
20260505085000 71 225 7.0 13.0 0.00 0.00 0.00 95 1007.3
20260505084458 71 221 7.0 9.0 0.00 0.00 0.00 95 1007.4
20260505083955 71 187 1.0 13.0 0.00 0.00 0.00 95 1007.5
20260505083452 71 154 1.0 11.0 0.00 0.00 0.00 95 1007.3
20260505082949 71 217 13.0 22.0 0.00 0.00 0.00 95 1007.5
20260505082444 71 152 5.0 12.0 0.00 0.00 0.00 95 1007.7
20260505081942 71 214 5.0 15.0 0.00 0.00 0.00 94 1008.0
20260505081439 71 224 9.0 15.0 0.00 0.00 0.00 94 1007.9
20260505080935 71 214 7.0 11.0 0.00 0.00 0.00 94 1007.8
20260505080431 71 208 5.0 12.0 0.00 0.00 0.00 95 1007.9
20260505075926 71 206 4.0 8.0 0.00 0.00 0.00 95 1007.8
20260505075424 71 237 2.0 9.0 0.00 0.00 0.00 95 1007.8
20260505074921 71 169 6.0 15.0 0.00 0.00 0.00 95 1007.8
20260505074419 70 237 2.0 6.0 0.00 0.00 0.00 95 1008.2
20260505073915 70 220 3.0 7.0 0.00 0.00 0.00 95 1008.1
20260505073413 70 206 0.0 6.0 0.00 0.00 0.00 95 1007.9
20260505072910 70 148 5.0 5.0 0.00 0.00 0.00 95 1007.9
20260505072406 70 235 4.0 11.0 0.00 0.00 0.00 95 1008.1
20260505071902 70 242 0.0 7.0 0.00 0.00 0.00 95 1008.4
20260505071359 70 218 7.0 9.0 0.00 0.00 0.00 94 1008.5
20260505070857 70 161 2.0 8.0 0.00 0.00 0.00 95 1008.4
20260505070353 70 144 2.0 8.0 0.00 0.00 0.00 95 1008.5
20260505065848 70 147 5.0 8.0 0.00 0.00 0.00 94 1008.5
20260505065346 70 216 6.0 13.0 0.00 0.00 0.00 94 1008.7
20260505064842 70 169 3.0 6.0 0.00 0.00 0.00 94 1008.9
20260505064339 70 145 3.0 6.0 0.00 0.00 0.00 94 1008.7
20260505063838 70 180 1.0 7.0 0.00 0.00 0.00 93 1008.7
20260505063333 70 186 5.0 12.0 0.00 0.00 0.00 93 1008.9
20260505062830 70 210 3.0 13.0 0.00 0.00 0.00 93 1008.7
20260505062328 70 211 5.0 9.0 0.00 0.00 0.00 93 1008.6
20260505061824 70 150 3.0 9.0 0.00 0.00 0.00 93 1008.7
20260505061323 70 225 5.0 7.0 0.00 0.00 0.00 93 1008.7
20260505060820 70 219 7.0 14.0 0.00 0.00 0.00 93 1008.5
20260505060316 70 180 5.0 11.0 0.00 0.00 0.00 93 1008.5
20260505055812 70 184 7.0 10.0 0.00 0.00 0.00 93 1008.6
20260505055308 70 235 3.0 12.0 0.00 0.00 0.00 93 1008.3
20260505054806 70 225 9.0 11.0 0.00 0.00 0.00 92 1008.6
20260505054303 70 168 4.0 14.0 0.00 0.00 0.00 92 1008.4
20260505053801 70 173 3.0 9.0 0.00 0.00 0.00 93 1008.4
20260505053258 70 168 5.0 6.0 0.00 0.00 0.00 92 1008.7
20260505052755 70 206 3.0 10.0 0.00 0.00 0.00 92 1008.7
20260505052252 70 216 2.0 9.0 0.00 0.00 0.00 92 1008.9
20260505051749 70 185 3.0 12.0 0.00 0.00 0.00 91 1008.8
20260505051247 70 212 5.0 10.0 0.00 0.00 0.00 91 1008.9
20260505050744 70 185 3.0 13.0 0.00 0.00 0.00 91 1008.5
20260505050243 71 153 5.0 9.0 0.00 0.00 0.00 91 1008.4
20260505041712 71 208 6.0 18.0 0.00 0.00 0.00 90 1009.2
20260505041209 71 204 5.0 7.0 0.00 0.00 0.00 90 1009.0
20260505040707 71 153 4.0 8.0 0.00 0.00 0.00 89 1009.1
20260505040204 71 169 3.0 15.0 0.00 0.00 0.00 89 1009.0
20260505035700 71 209 7.0 11.0 0.00 0.00 0.00 89 1009.0
20260505035156 72 197 3.0 13.0 0.00 0.00 0.00 89 1009.2
20260505034653 72 180 4.0 8.0 0.00 0.00 0.00 88 1009.1
20260505034151 72 194 5.0 12.0 0.00 0.00 0.00 88 1009.0
20260505033646 72 183 5.0 6.0 0.00 0.00 0.00 88 1008.8
20260505033145 72 201 3.0 10.0 0.00 0.00 0.00 88 1008.7
20260505032643 72 159 4.0 13.0 0.00 0.00 0.00 88 1008.9
20260505032138 73 157 7.0 11.0 0.00 0.00 0.00 87 1009.1
20260505031636 73 164 6.0 13.0 0.00 0.00 0.00 87 1008.9
20260505031126 73 158 6.0 12.0 0.00 0.00 0.00 87 1009.1
20260505030624 73 137 7.0 9.0 0.00 0.00 0.00 87 1008.7